IZ3VCM Weather Reports


Display with metric or nautical units.
time (UTC)temp
F
wind
direction
speed
MPH
gust
MPH
rain 1hr
in
rain 24hr
in
rain mn
in
humidity
%
barometer
mb
20260506131503 67 0 0.0 0.0 0.00 0.28 0.28 83 1008.9
20260506130006 66 0 0.0 0.0 0.05 0.28 0.28 87 1008.9
20260506124503 65 0 0.0 0.0 0.21 0.28 0.28 88 1009.0
20260506123006 64 0 0.0 0.0 0.21 0.28 0.28 89 1009.0
20260506121503 62 0 0.0 0.0 0.21 0.28 0.28 89 1009.0
20260506120006 62 111 3.0 6.0 0.16 0.24 0.23 88 1009.0
20260506114503 64 66 1.0 4.0 0.00 0.07 0.07 86 1009.1
20260506113006 65 91 3.0 6.0 0.00 0.07 0.07 84 1009.3
20260506111503 64 120 5.0 8.0 0.00 0.07 0.07 85 1009.6
20260506110005 64 115 3.0 5.0 0.00 0.07 0.07 84 1009.6
20260506104502 66 128 6.0 9.0 0.02 0.07 0.07 84 1009.7
20260506103005 65 108 5.0 6.0 0.02 0.07 0.07 87 1009.8
20260506101503 65 112 5.0 5.0 0.02 0.07 0.07 88 1009.9
20260506100005 63 112 4.0 4.0 0.02 0.07 0.07 88 1010.0
20260506094502 62 80 4.0 5.0 0.00 0.07 0.05 88 1010.0
20260506093006 63 102 7.0 9.0 0.00 0.07 0.05 88 1010.3
20260506091503 62 111 3.0 3.0 0.00 0.10 0.05 90 1010.2
20260506090004 60 112 3.0 3.0 0.00 0.10 0.05 89 1010.1
20260506084503 60 124 3.0 4.0 0.00 0.10 0.05 89 1010.3
20260506083005 61 124 5.0 6.0 0.00 0.10 0.05 89 1010.2
20260506081502 62 101 2.0 3.0 0.00 0.10 0.05 89 1010.0
20260506073005 61 112 4.0 4.0 0.00 0.14 0.05 91 1010.1
20260506071503 59 0 0.0 0.0 0.00 0.14 0.05 91 1009.9
20260505221503 52 0 0.0 0.0 0.00 0.10 0.00 90 1011.9
20260505220006 53 0 0.0 0.0 0.00 0.10 0.00 90 1012.0
20260505214504 54 0 0.0 0.0 0.00 0.10 0.09 90 1012.1
20260505213006 54 0 0.0 0.0 0.00 0.10 0.09 90 1012.3
20260505211504 54 0 0.0 0.0 0.00 0.10 0.09 90 1012.4
20260505210006 54 0 0.0 0.0 0.00 0.10 0.09 90 1012.5
20260505204503 54 0 0.0 0.0 0.00 0.10 0.09 89 1012.5
20260505203005 55 0 0.0 0.0 0.00 0.10 0.09 89 1012.5
20260505201503 55 0 0.0 0.0 0.00 0.10 0.09 89 1012.4
20260505200006 56 0 0.0 0.0 0.00 0.10 0.09 89 1012.4
20260505194504 56 0 0.0 0.0 0.00 0.10 0.09 88 1012.3
20260505193006 56 0 0.0 0.0 0.00 0.10 0.09 88 1012.1
20260505191504 57 90 1.0 3.0 0.00 0.10 0.09 88 1012.1
20260505190006 58 45 3.0 4.0 0.00 0.10 0.09 87 1012.1
20260505184503 58 0 0.0 0.0 0.00 0.10 0.09 86 1012.0
20260505183005 58 0 0.0 0.0 0.00 0.10 0.09 86 1012.1
20260505181503 59 0 0.0 0.0 0.00 0.10 0.09 84 1012.0
20260505180005 60 0 0.0 0.0 0.00 0.10 0.09 83 1012.0
20260505174503 61 0 0.0 0.0 0.00 0.10 0.09 81 1011.9
20260505173006 64 68 2.0 3.0 0.00 0.10 0.09 79 1011.7
20260505171503 65 23 0.0 1.0 0.00 0.10 0.09 77 1011.6
20260505170005 66 49 1.0 6.0 0.00 0.10 0.09 75 1011.5
20260505164504 67 0 0.0 0.0 0.00 0.10 0.09 74 1011.4
20260505163007 68 23 0.0 2.0 0.00 0.10 0.09 73 1011.6
20260505161503 69 68 1.0 3.0 0.00 0.10 0.09 74 1011.7
20260505153005 66 56 2.0 6.0 0.00 0.10 0.09 76 1011.9
20260505151503 71 45 4.0 6.0 0.00 0.10 0.09 71 1012.0